Погода в Угояне

Россия / Республика Саха (Якутия)     59°15′15″N   125°17′31″E
темп.,
°C
ветер,
м/с
пор.,
м/с
влажн.,
%
обл.,
%
осадки,
мм/ч
давл.,
гПа
погр.,
м
3 марта, ср
ср300:00−33вюв1110041 0.0 102219
03:00−35в119637 0.0 102119
06:00−36всв119574 0.0 102119
09:00−33св119686 0.0 102128
12:00−25с009196 0.0 1018341
15:00−22с118798 0.0 1017600
18:00−27с1195100 0.0 101919
21:00−30зсз11100100 0.1 102119
4 марта, чт
чт400:00−30зсз1199100 0.1 102319
03:00−32з1299100 0.1 102419
06:00−35з129897 0.0 102619
09:00−33з389586 0.0 1027299
12:00−30з51092100 0.0 1027648
15:00−28з61091100 0.1 1027850
18:00−29зсз51190100 0.1 1029874
21:00−29зсз41192100 0.2 1030895
5 марта, пт
пт500:00−29зсз41193100 0.1 1031960
03:00−30зсз51193100 0.2 1033870
06:00−30зсз41093100 0.1 1034785
09:00−30зсз51090100 0.1 1036677
12:00−27з5987100 0.0 1035746
15:00−23зсз5984100 0.0 1034913
18:00−26з3691100 0.0 1034130
21:00−30зюз239678 0.0 103521
6 марта, сб
сб600:00−32юз22953 0.0 103519
03:00−33юз22941 0.0 103519
06:00−35юз22950 0.0 103419
09:00−31ююз23920 0.0 103294
12:00−22ююз24800 0.0 1028363
15:00−18ююз23760 0.0 1025474
18:00−22ююв11890 0.0 102320
21:00−25юв11890 0.0 102420
7 марта, вс
вс700:00−27юв11930 0.0 102320
03:00−28юв11951 0.0 102319
06:00−27юв119758 0.0 102219
09:00−23юв119867 0.0 102233
12:00−15ююз128998 0.0 1020412
15:00−12ююз128699 0.1 1019589
18:00−14ю129696 0.1 101820
21:00−16ююв129785 0.2 101920